ONEWEB-0700, 61606

Orbit data source: Space-Track

ONEWEB-0700, 61606 is a payload satellite owned by Eut. One Web (UK) in LEO that was launched on Sun, 20 Oct 2024 UTC via an FALCON 9 launch vehicle from the Air Force Western Test Range (AFWTR). Payload-class satellites include a variety of spacecraft equipped with specific instruments for various scientific and technological missions. These include communications satellites like Starlink; space stations such as the ISS; scientific satellites like the Hubble; Earth observation satellites from companies like Planet Labs, Umbra, and HawkEye 360; GPS; miniature CubeSats for education and research; and military/defense satellites.

Loading next visibility...
Identifier
61606, 2024-188N
Orbit
LEO
Country
Flag of UKUK
Related business
Manufacturer
One Web
Mission
Operational Commercial Communications
Bus & Motor
ARROW, Unknown motor
Mass
148 kg wet, ~140 kg dry
Launch date (UTC)
2024-10-20 (1 year ago)
Launch vehicle
FALCON 9
Launch site
Air Force Western Test Range (AFWTR)
Object type
Payload
Rocket body
Debris
Shape & HBR
Trap Box + 2 Pan, 6.7 m
Radar Cross Section
3.464 m², Large (>1 m²)

Expand to show TLE details & history
Last TLE update: 10 hours ago

TLE from 10 hours ago
0 ONEWEB-0700
1 61606U 24188N   26061.92752581 -.00000532  00000-0 -15614-2 0  9997
2 61606  87.8781  57.3175 0002547  88.7205 271.4214 13.10370872 69385
Epoch: 2026-03-02T22:15Z
TLE epoch observation values (Epoch: 2026-03-02T22:15:38.229Z)
Latitude
-0.00006°
Longitude
-77.3057°
Altitude
1,224.565 km
Speed
7.242 km/s
True Right ascension
03h 49m 16s
True Declination
0° 00' 00"
Sunlit
Object was in daylight at epoch
Visualization orbit readout
Latitude
Unknown
Longitude
Unknown
Altitude
Unknown
Speed
Unknown
Apparent Right ascension
Unknown
Apparent Declination
Unknown
Sunlit
N/A
Visualization observer readout
Local Sidereal Time
12:10:38
Azimuth
Unknown
Elevation
Unknown
Doppler factor
Unknown
Orbital elements
Apogee altitude
1,220.779 km
Perigee altitude
1,216.91 km
Semi-major axis
7,596.982 km
Eccentricity
0.00025
Inclination
87.8781°
RAAN
57.3175°
Arg. of periapsis
88.7205°
True anomaly
271.39222°
Mean anomaly
271.4214°
Eccentric anomaly
271.40681°
Mean motion
3.27779 °/min
Orbital period
109.83 mins
BSTAR
-0.0015614
Loading maneuver chart data...
Computing Atmospheric mass density...
Loading historical data...
Loading historical data...
Loading historical data...
Loading historical data...
Loading historical data...
Loading historical data...
Loading historical data...

Documentation

Showing up to 5 results
|